METEOR M2-2

导读 | 豆包AI

METEOR M2-2(流星-M2-2)是独联体(CIS)旗下俄罗斯研制的新一代极轨气象卫星,于2019年7月5日由联盟-2.1b运载火箭从东方发射场成功发射。卫星运行于太阳同步轨道,搭载多种气象探测载荷,旨在提升气象观测能力。但发射仅11天后,因微流星体撞击受损,图像传输中止,最终无法正常执行气象观测任务。

基本信息
目录编号:
44387
目录名称:
METEOR M2-2
国际标识:
2019-038A
轨道中心:
EARTH
卫星名称:
METEOR M2-2
卫星全名:
--
卫星状态:
在轨 (已飞行2443 天)
发射日期:
2019-07-05 UTC
国别 :
俄罗斯(独联体) (CIS)
星等 :
--
轨道信息
数据来源 国际轨道数据 AOE轨道数据
星历时间 2026-03-13T21:38:33+0800
8小时前
查看轨道信息
2026-03-13T16:00:00+0800
14小时前
查看轨道信息
半长轴 7188.862km 7188.88km
偏心率 0.0000682 0.0001059
轨道倾角 98.910° 98.909°
近地点辐角 353.096° 0.608°
升交点赤经 58.474° 58.239°
平近点角 7.021° 234.625°
近地点 810.234km 809.981km
远地点 811.216km 811.505km
周期 101.100分钟 101.100分钟
每日圈数 14.243365 14.243311
详细信息
使用方式:
暂无
2D轨道图
3D轨道图
轨道高度分析图
轨道倾角分析图
轨道综合分析图
查看轨道综合分析图